Date String (YYYY-MM-DD hh:mm:ss) UTC,Instrument flags,Ambient pressure (hPa),Sample flow (lpm),Bypass flow (lpm),Sample temperature (°C),Ambient temperature (°C),ASC tube jacket temperature (°C),LED temperature (°C),Box temperature (°C),Sample RH (%),Span deviation,Mass concentration (μg/m³),Mass concentration (μg/m³),Mass concentration (μg/m³)
DateTimeUTC,F1_M11,P_M11,Q1_M11,Q2_M11,T1_M11,T2_M11,T3_M11,T4_M11,T5_M11,U1_M11,ZSPAN_M11,X0_M11,X2_M11,X1_M11
2023-01-16 11:00:00,,0810.3,5.00,0.00,22.6,21.3,00.0,31.4,24.4,18.1,0000.0,0010.01,0005.79,0005.56
2023-01-16 11:01:00,,0810.3,5.01,0.00,22.6,21.3,00.0,31.4,24.4,18.2,0000.0,0010.13,0005.83,0005.57
2023-01-16 11:02:00,,0810.3,5.01,0.00,22.6,21.3,00.0,31.4,24.4,18.2,0000.0,0010.22,0005.86,0005.60
2023-01-16 11:03:00,,0810.3,4.99,0.00,22.6,21.3,00.0,31.4,24.4,18.2,0000.0,0010.09,0005.84,0005.62
2023-01-16 11:04:00,,0810.3,5.01,0.00,22.6,21.3,00.0,31.4,24.4,18.3,0000.0,0010.03,0005.84,0005.61
2023-01-16 11:05:00,,0810.3,5.02,0.00,22.6,21.2,00.0,31.4,24.3,18.3,0000.0,0009.98,0005.81,0005.60
2023-01-16 11:06:00,,0810.4,5.00,0.00,22.6,21.2,00.0,31.4,24.3,18.3,0000.0,0010.04,0005.82,0005.60
2023-01-16 11:07:00,,0810.4,5.00,0.00,22.6,21.2,00.0,31.4,24.3,18.4,0000.0,0010.06,0005.85,0005.61
2023-01-16 11:08:00,,0810.4,5.00,0.00,22.6,21.2,00.0,31.4,24.3,18.4,0000.0,0009.97,0005.82,0005.62
2023-01-16 11:09:00,,0810.3,5.00,0.00,22.6,21.1,00.0,31.4,24.3,18.5,0000.0,0009.87,0005.79,0005.60
2023-01-16 11:10:00,,0810.2,5.00,0.00,22.6,21.1,00.0,31.4,24.3,18.5,0000.0,0009.09,0005.80,0005.61
2023-01-16 11:11:00,,0810.2,4.99,0.00,22.5,21.1,00.0,31.4,24.3,18.6,0000.0,0009.02,0005.79,0005.60
2023-01-16 11:12:00,,0810.3,5.00,0.00,22.5,21.1,00.0,31.4,24.3,18.6,0000.0,0008.97,0005.79,0005.61
2023-01-16 11:13:00,,0810.3,5.00,0.00,22.5,21.0,00.0,31.4,24.3,18.6,0000.0,0008.91,0005.79,0005.59
2023-01-16 11:14:00,,0810.3,4.99,0.00,22.5,21.0,00.0,31.4,24.3,18.7,0000.0,0008.98,0005.82,0005.58
2023-01-16 11:15:00,,0810.3,5.02,0.00,22.5,21.0,00.0,31.4,24.3,19.0,0000.0,0009.08,0005.82,0005.58
2023-01-16 11:16:00,,0810.5,4.98,0.00,22.5,21.0,00.0,31.4,24.2,18.7,0000.0,0009.18,0005.87,0005.58
2023-01-16 11:17:00,,0810.6,5.01,0.00,22.5,21.0,00.0,31.4,24.2,18.6,0000.0,0009.58,0005.88,0005.59
2023-01-16 11:18:00,,0810.6,5.01,0.00,22.4,20.9,00.0,31.4,24.2,18.6,0000.0,0009.85,0005.90,0005.59
2023-01-16 11:19:00,,0810.6,5.01,0.00,22.4,20.8,00.0,31.4,24.2,18.3,0000.0,0009.94,0005.90,0005.57
2023-01-16 11:20:00,,0810.6,4.99,0.00,22.4,20.8,00.0,31.4,24.2,18.3,0000.0,0009.89,0005.88,0005.55
2023-01-16 11:21:00,,0810.7,4.99,0.00,22.4,20.7,00.0,31.3,24.1,18.6,0000.0,0010.14,0005.87,0005.54
2023-01-16 11:22:00,,0810.7,4.99,0.00,22.4,20.7,00.0,31.3,24.2,18.8,0000.0,0010.68,0005.93,0005.57
2023-01-16 11:23:00,,0810.7,5.01,0.00,22.4,21.4,00.0,31.3,24.3,18.8,0000.0,0010.79,0005.97,0005.58
2023-01-16 11:24:00,,0810.7,5.00,0.00,22.5,22.4,00.0,31.3,24.5,18.6,0000.0,0010.77,0005.97,0005.58
2023-01-16 11:25:00,,0810.7,5.00,0.00,22.6,22.8,00.0,31.3,24.7,18.3,0000.0,0010.75,0005.92,0005.53
2023-01-16 11:26:00,,0810.7,5.00,0.00,22.7,22.5,00.0,31.4,24.7,18.3,0000.0,0010.70,0005.91,0005.51
2023-01-16 11:27:00,,0810.7,4.99,0.00,22.7,22.2,00.0,31.4,24.6,18.3,0000.0,0010.68,0005.90,0005.51
2023-01-16 11:28:00,,0810.7,5.01,0.00,22.7,22.0,00.0,31.4,24.5,18.3,0000.0,0010.29,0005.92,0005.54
2023-01-16 11:29:00,,0810.7,4.99,0.00,22.7,21.8,00.0,31.4,24.5,18.2,0000.0,0010.10,0005.94,0005.56
2023-01-16 11:30:00,,0810.7,5.00,0.00,22.7,21.7,00.0,31.5,24.5,18.1,0000.0,0010.67,0006.01,0005.61
2023-01-16 11:31:00,,0810.7,5.00,0.00,22.7,21.6,00.0,31.5,24.5,18.1,0000.0,0011.04,0006.08,0005.67
2023-01-16 11:32:00,,0810.7,5.00,0.00,22.7,21.5,00.0,31.5,24.5,18.1,0000.0,0010.82,0006.08,0005.68
2023-01-16 11:33:00,,0810.7,5.01,0.00,22.7,21.5,00.0,31.5,24.5,18.1,0000.0,0010.14,0006.01,0005.64
2023-01-16 11:34:00,,0810.6,5.00,0.00,22.7,21.4,00.0,31.5,24.5,18.1,0000.0,0010.01,0005.93,0005.60
2023-01-16 11:35:00,,0810.6,5.00,0.00,22.7,21.3,00.0,31.5,24.4,18.1,0000.0,0010.51,0005.91,0005.58
2023-01-16 11:36:00,,0810.6,5.00,0.00,22.7,21.3,00.0,31.5,24.4,18.0,0000.0,0010.56,0005.90,0005.57
2023-01-16 11:37:00,,0810.6,5.00,0.00,22.6,21.3,00.0,31.5,24.4,17.6,0000.0,0010.41,0005.82,0005.51
2023-01-16 11:38:00,,0810.6,5.00,0.00,22.6,21.3,00.0,31.5,24.4,17.4,0000.0,0010.25,0005.72,0005.43
2023-01-16 11:39:00,,0810.7,5.01,0.00,22.6,21.3,00.0,31.5,24.4,17.4,0000.0,0010.22,0005.66,0005.36
2023-01-16 11:40:00,,0810.8,5.00,0.00,22.6,21.3,00.0,31.5,24.4,17.6,-001.7,0010.20,0005.61,0005.29
2023-01-16 11:41:00,,0810.7,5.00,0.00,22.6,21.2,00.0,31.5,24.4,17.5,-000.5,0009.70,0005.53,0005.23
2023-01-16 11:42:00,,0810.6,5.01,0.00,22.6,21.1,00.0,31.5,24.3,17.5,0000.0,0009.17,0005.45,0005.16
2023-01-16 11:43:00,,0810.6,5.02,0.00,22.6,21.1,00.0,31.5,24.3,17.6,0000.0,0009.14,0005.41,0005.11
2023-01-16 11:44:00,,0810.6,5.01,0.00,22.6,21.1,00.0,31.5,24.3,17.6,0000.0,0009.11,0005.38,0005.09
2023-01-16 11:45:00,,0810.7,4.99,0.00,22.5,21.0,00.0,31.5,24.3,17.6,-001.1,0009.08,0005.38,0005.07
2023-01-16 11:46:00,,0810.7,5.00,0.00,22.5,21.0,00.0,31.5,24.3,17.5,-000.1,0008.63,0005.34,0005.05
2023-01-16 11:47:00,,0810.8,5.01,0.00,22.5,21.0,00.0,31.4,24.3,17.3,0000.0,0008.33,0005.28,0005.01
2023-01-16 11:48:00,,0810.8,5.00,0.00,22.5,21.0,00.0,31.4,24.2,17.4,0000.0,0008.37,0005.31,0005.03
2023-01-16 11:49:00,,0810.7,5.00,0.00,22.5,21.0,00.0,31.4,24.2,17.2,0000.0,0008.39,0005.31,0005.04
2023-01-16 11:50:00,,0810.6,5.00,0.00,22.5,20.9,00.0,31.4,24.2,16.7,0000.0,0008.20,0005.19,0004.95
2023-01-16 11:51:00,,0810.6,5.00,0.00,22.5,21.0,00.0,31.4,24.2,16.6,0000.0,0007.97,0005.05,0004.84
2023-01-16 11:52:00,,0810.7,4.99,0.00,22.5,20.9,00.0,31.4,24.2,16.2,0000.0,0008.34,0004.88,0004.70
2023-01-16 11:53:00,,0810.8,5.01,0.00,22.4,20.9,00.0,31.4,24.2,16.2,0000.0,0008.35,0004.74,0004.56
2023-01-16 11:54:00,,0810.6,5.00,0.00,22.4,20.9,00.0,31.4,24.2,16.2,0000.0,0008.51,0004.63,0004.43
2023-01-16 11:55:00,,0810.6,5.00,0.00,22.4,20.9,00.0,31.4,24.2,16.2,0000.0,0008.41,0004.51,0004.32
2023-01-16 11:56:00,,0810.8,4.99,0.00,22.4,21.0,00.0,31.3,24.2,16.0,0000.0,0008.25,0004.37,0004.19
2023-01-16 11:57:00,,0810.8,5.01,0.00,22.4,21.0,00.0,31.3,24.2,16.0,0000.0,0008.12,0004.24,0004.05
2023-01-16 11:58:00,,0810.8,5.01,0.00,22.4,21.0,00.0,31.3,24.1,16.3,0000.0,0008.02,0004.17,0003.98
2023-01-16 11:59:00,,0810.8,5.00,0.00,22.4,21.4,00.0,31.3,24.2,15.9,0000.0,0007.85,0004.04,0003.87
